Regional Weather Roundup
Issued by NWS Cleveland, OH

Home | Current Version | Previous Version | Graphics & Text | Print | Product List | Glossary On
Versions: 1 2 3 4 5 6 7 8 9 10 11 12 13 14 15 16 17 18 19 20 21 22 23 24 25 26 27 28 29 30 31 32 33 34 35 36 37 38 39 40 41 42 43 44 45 46 47 48 49 50
000
ASUS41 KCLE 312110
RWRCLE
OHIO REGIONAL WEATHER ROUNDUP
NATIONAL WEATHER SERVICE CLEVELAND, OH
400 PM EST SAT JAN 31 2015

NOTE: "FAIR" INDICATES FEW OR NO CLOUDS BELOW 12,000 FEET WITH NO
SIGNIFICANT WEATHER AND/OR OBSTRUCTIONS TO VISIBILITY.

OHZ001>008-015>018-024>027-034-035-043-044-312200-
   NORTHWEST OHIO

CITY           SKY/WX    TMP DP  RH WIND       PRES   REMARKS
DEFIANCE       PTSUNNY   36  24  62 SW10      30.20S
FINDLAY        MOSUNNY   33  23  66 SW13      30.20F WCI  24
TOLEDO EXPRESS SUNNY     34  22  61 SW7       30.20R WCI  28
TOLEDO EXEC    SUNNY     34  23  64 SW14      30.21F WCI  25
LIMA           PTSUNNY   35  24  64 SW10      30.21S WCI  27
$$

OHZ009>014-019>023-028>033-038-089-312200-
   NORTHEAST OHIO

CITY           SKY/WX    TMP DP  RH WIND       PRES   REMARKS
CLE-HOPKINS    MOSUNNY   30  17  58 SW15      30.24F WCI  19
CLE-LAKEFRONT  SUNNY     32  19  58 SW16      30.22F WCI  21
CUY CO. ARPT   PTSUNNY   34  19  55 SW16      30.22F WCI  23
LORAIN-ELYRIA  SUNNY     29  19  66 SW13      30.22F WCI  19
ASHTABULA      CLOUDY    27  16  63 W8        30.22F WCI  19
AKRON-CANTON   MOSUNNY   28  15  58 SW10      30.22F WCI  19
WOOSTER        SUNNY     28  16  60 SW10      30.22F WCI  19
MANSFIELD      SUNNY     30  18  60 SW12      30.21F WCI  20
YOUNGSTOWN     MOSUNNY   25  15  66 SW10      30.22S WCI  15
$$

OHZ042-051>053-060>062-070>072-077>081-312200-
  SOUTHWEST OHIO

CITY           SKY/WX    TMP DP  RH WIND       PRES   REMARKS
CINC-COVINGTON CLOUDY    38  19  46 SW6       30.27F
CINC-LUNKEN    CLOUDY    38  19  46 SW8       30.30F
HAMILTON       CLOUDY    39  21  48 SW6       30.28F
DAYTON         CLOUDY    36  23  59 SW13      30.24F
WRIGHT-PAT AFB CLOUDY    35  23  59 S13       30.24F WCI  27
DAYTON GENERAL CLOUDY    36  21  54 SW12      30.24F
WILMINGTON     CLOUDY    34  20  56 SW14      30.25F WCI  25
$$

OHZ036-037-039>041-045>050-054>059-063>069-073>076-082>088-312200-
  CENTRAL AND SOUTHEAST OHIO

CITY           SKY/WX    TMP DP  RH WIND       PRES   REMARKS
COLUMBUS       CLOUDY    33  21  61 SW10      30.26F WCI  25
OSU AIRPORT    MOSUNNY   33  20  58 SW12      30.25F WCI  24
BOLTON FIELD   SUNNY     34  25  69 SW10      30.26F WCI  26
RICKENBACK AFB MOSUNNY   34  22  62 SW9       30.26F WCI  26
NEWARK         MOSUNNY   32  21  64 SW6       30.25F WCI  26
MARION         SUNNY     31  20  63 SW10      30.23F WCI  22
LANCASTER      MOSUNNY   34  21  59 SW9       30.27F WCI  27
ZANESVILLE     MOSUNNY   32  15  49 W8        30.27S WCI  25
NEW PHILLY     SUNNY     30  15  53 SW7       30.26F WCI  23
$$


USA.gov is the U.S. government's official web portal to all federal, state and local government web resources and services.